Regional Weather Roundup
Issued by NWS Cleveland, OH

Home | Current Version | Previous Version | Text Only | Print | Product List | Glossary Off
Versions: 1 2 3 4 5 6 7 8 9 10 11 12 13 14 15 16 17 18 19 20 21 22 23 24 25 26 27 28 29 30 31 32 33 34 35 36 37 38 39 40 41 42 43 44 45 46 47 48 49 50

000
ASUS41 KCLE 171710
RWRCLE
OHIO REGIONAL WEATHER ROUNDUP
NATIONAL WEATHER SERVICE WILMINGTON, OH
1200 PM EST SUN DEC 17 2017

NOTE: "FAIR" INDICATES FEW OR NO CLOUDS BELOW 12,000 FEET WITH NO
SIGNIFICANT WEATHER AND/OR OBSTRUCTIONS TO VISIBILITY.

OHZ001>008-015>018-024>027-034-035-043-044-171800-
   NORTHWEST OHIO

CITY           SKY/WX    TMP DP  RH WIND       PRES   REMARKS
DEFIANCE       CLOUDY    31  30  96 E5        30.14R FOG     WCI  26
FINDLAY        FAIR      37  31  78 S7        30.12S
TOLEDO EXPRESS PTSUNNY   34  32  92 E7        30.12F FOG     WCI  28
TOLEDO EXEC    FAIR      33  29  85 E5        30.14F FOG     WCI  29
LIMA           PTSUNNY   38  32  79 S7        30.11S
$$

OHZ009>014-019>023-028>033-038-089-171800-
   NORTHEAST OHIO

CITY           SKY/WX    TMP DP  RH WIND       PRES   REMARKS
CLE-HOPKINS    CLOUDY    36  31  82 CALM      30.17F
CLE-LAKEFRONT  FAIR      34  28  79 VRB3      30.15F
CUY CO. ARPT   CLOUDY    34  30  86 SE8       30.16F FOG     WCI  27
LORAIN-ELYRIA  FAIR      30  26  85 SE3       30.14F FOG
ASHTABULA      FAIR      28  28 100 SE3       30.18F
AKRON-CANTON   CLOUDY    36  28  73 S7        30.13F
WOOSTER        FAIR      36  30  79 SE3       30.13F
MANSFIELD      FAIR      38  30  73 S6        30.11F
YOUNGSTOWN     CLOUDY    33  29  85 E5        30.15F WCI  29
$$

OHZ042-051>053-060>062-070>072-077>081-171800-
  SOUTHWEST OHIO

CITY           SKY/WX    TMP DP  RH WIND       PRES   REMARKS
CINC-COVINGTON CLOUDY    43  32  65 S7        30.10F
CINC-LUNKEN    CLOUDY    43  34  70 CALM      30.14F
HAMILTON       CLOUDY    43  34  70 E5        30.13F
DAYTON         LGT RAIN  39  33  79 S7        30.12F
WRIGHT-PAT AFB CLOUDY    41  32  71 CALM      30.13S
DAYTON GENERAL LGT RAIN  41  32  70 S7        30.12F
WILMINGTON     CLOUDY    40  32  73 S7        30.13F
$$

OHZ036-037-039>041-045>050-054>059-063>069-073>076-082>088-171800-
  CENTRAL AND SOUTHEAST OHIO

CITY           SKY/WX    TMP DP  RH WIND       PRES   REMARKS
COLUMBUS       CLOUDY    41  32  70 S6        30.15F
OSU AIRPORT    PTSUNNY   38  32  79 S6        30.14F
BOLTON FIELD   CLOUDY    37  32  81 S7        30.15F
RICKENBACK AFB CLOUDY    40  31  70 S6        30.15S
NEWARK         PTSUNNY   39  32  76 CALM      30.14F
MARION         FAIR      37  31  78 S8        30.14F
LANCASTER      CLOUDY    40  31  70 SE6       30.15F
ZANESVILLE     FAIR      40  29  64 S7        30.15F
NEW PHILLY     FAIR      37  29  72 SE6       30.16F
$$



USA.gov is the U.S. government's official web portal to all federal, state and local government web resources and services.